ARIANE 5 DEB, 43382

Orbit data source: Space-Track

ARIANE 5 DEB, 43382 is space debris in HEO originally from a launch on Thu, 12 Jun 2008 UTC launched from the French Guiana (FRGUI). Debris objects in space refer to the collection of defunct objects orbiting the Earth. Examples of debris include non-operational satellites, rocket bodies, and fragments generated from explosions, collisions, or faulty payload assembly.

Loading next visibility...
ARIANE 5 DEB details
Identifier
43382, 2008-030E
Orbit
HEO
Last TLE update17 hours ago
Origin
Flag of FRESA (FR)
ManufacturerThales Alenia
MissionSpacecraft
Bus & MotorUnknown
MassUnknown
Launch date (UTC)
2008-06-12 (17 years ago)
Launch vehicleUnknown
Launch site
French Guiana (FRGUI)
Object type
Payload
Rocket body
Debris
Shape & HBRUnknown
Radar Cross SectionLarge (>1 m²)

Expand to show TLE details & history

TLE from 17 hours ago
0 ARIANE 5 DEB
1 43382U 08030E   24360.89828029  .00001459  00000-0  13833-2 0  9991
2 43382   1.7972 262.8731 7055462 116.7733 330.1830  2.52424196 99678
Epoch: 2024-12-25T21:33Z
Definitive object data (Epoch: 2024-12-25T21:33:31.417Z)
Latitude-0.00004°
Longitude-154.41169°
Altitude10,167.864 km
Speed5.539 km/s
True Right ascension17h 35m 25s
True Declination0° 00' 00"
Sunlit
Object was in daylight at TLE epoch
Visualization TLE readout
Latitude-1.30614°
Longitude158.31791°
Altitude28,966.141 km
Speed2.25 km/s
Apparent Right ascension14h 33m 48s
Apparent Declination-9° 03' 58"
Sunlit
Object is in daylight
Visualization observer readout
Local Sidereal Time13:39:24
Azimuth162.506° S
Elevation39.424°
Doppler factor1
Orbital elements
Apogee altitude32,491.903 km
Perigee altitude332.576 km
Semi-major axis22,790.376 km
Eccentricity0.7055462
Inclination1.7972°
RAAN262.8731°
Arg. of periapsis116.7733°
True anomaly244.19983°
Mean anomaly330.183°
Eccentric anomaly292.96102°
Mean motion0.63084 °/min
BSTAR0.0013833
Orbital period570.67 mins
Loading maneuver chart data...
Loading historical data...
Loading historical data...
Loading historical data...
Loading historical data...
Loading historical data...
Loading historical data...
Loading historical data...

ARIANE 5 DEB Visibility forecast

Observer location: undefined°, undefined

Span
Click to sort rows by Start time (UTC) header in descending order
Start Az.
Max El. time (UTC)
Max El. Az.
Max El.
End time (UTC)
End Az.
151 mins2024-12-26 14:17:35.422Z162.513° S2024-12-26 14:24:35.422Z163.126° S32.412°2024-12-26 16:48:35.422Z130.564° SE
56 mins2024-12-27 13:21:35.422Z238.075° WSW2024-12-27 14:17:35.422Z229.002° WSW22.214°2024-12-27 14:17:35.422Z229.002° WSW
|